User: anonymous   Login
Location: Unspecified
(0.0000°N, 0.0000°E)
Time: 06:39:34
(UTC+00:00)
Language:

COSMOS 2479 - Orbit

View from above orbital plane
View from above orbital plane
View from above satellite
View from above satellite

Ground track
Ground track

The orbit data is extracted from the following two-line orbital elements,

1 38101U 12012A   18293.56620078 -.00000092 +00000-0 +00000-0 0  9998
2 38101 002.5879 072.1230 0007963 227.4895 095.5912 01.00277343024029
Epoch (UTC): 20 October 2018 13:35:19
Eccentricity: 0.0007963
inclination: 2.5879°
perigee height: 35751 km
apogee height: 35818 km
right ascension of ascending node: 72.1230°
argument of perigee: 227.4895°
revolutions per day: 1.00277343
mean anomaly at epoch: 95.5912°
orbit number at epoch: 2402

The dashed part of the orbit path shows where the satellite is in the earth's shadow,  

DLR